• In Kazakhstan
  • List of Countries
  • For 7 days
  • Water Temperature
  • Satellite Maps
  • Weather Map
  • News
  • Weather Widgets
  • user-avatar
    Login

    Hourly Weather Luanda

    Today, 20 March, Wednesday

    Time Temperature Precipitation Wind Pressure Humidity
    00:00 +30°C° 0 mm 3 mps 752 mmHg 86%
    01:00 +29°C° 0 mm 3 mps 752 mmHg 89%
    02:00 +29°C° 0 mm 3 mps 752 mmHg 89%
    03:00 +29°C° 0 mm 4 mps 752 mmHg 90%
    04:00 +29°C° 0 mm 4 mps 751 mmHg 90%
    05:00 +29°C° 0 mm 3 mps 752 mmHg 90%
    06:00 +29°C° 0 mm 3 mps 752 mmHg 89%
    07:00 +29°C° 0 mm 3 mps 752 mmHg 86%
    08:00 +30°C° 0 mm 3 mps 752 mmHg 80%
    09:00 +31°C° 0 mm 2 mps 752 mmHg 75%
    10:00 +32°C° 0 mm 2 mps 753 mmHg 69%
    11:00 +34°C° 0 mm 2 mps 752 mmHg 66%
    12:00 +35°C° 0 mm 2 mps 751 mmHg 64%
    13:00 +35°C° 0 mm 3 mps 751 mmHg 61%
    14:00 +35°C° 0.1 mm 3 mps 750 mmHg 63%
    15:00 +35°C° 0.1 mm 4 mps 750 mmHg 65%
    16:00 +35°C° 0.1 mm 4 mps 750 mmHg 66%
    17:00 +34°C° 1.4 mm 3 mps 750 mmHg 72%
    18:00 +31°C° 1.4 mm 3 mps 751 mmHg 77%
    19:00 +30°C° 1.4 mm 2 mps 751 mmHg 82%
    20:00 +30°C° 0 mm 2 mps 751 mmHg 82%
    21:00 +30°C° 0 mm 1 mps 752 mmHg 83%
    22:00 +30°C° 0 mm 1 mps 752 mmHg 83%
    23:00 +30°C° 0 mm 2 mps 752 mmHg 84%

    Tomorrow, 21 March, Thursday

    Time Temperature Precipitation Wind Pressure Humidity
    00:00 +29°C° 0 mm 3 mps 752 mmHg 85%
    01:00 +29°C° 0 mm 4 mps 751 mmHg 86%
    02:00 +29°C° 0.1 mm 4 mps 751 mmHg 87%
    03:00 +29°C° 0.1 mm 4 mps 751 mmHg 88%
    04:00 +28°C° 0.1 mm 4 mps 751 mmHg 89%
    05:00 +28°C° 0 mm 4 mps 751 mmHg 89%
    06:00 +28°C° 0 mm 3 mps 752 mmHg 89%
    07:00 +28°C° 0 mm 3 mps 752 mmHg 89%
    08:00 +29°C° 0 mm 2 mps 752 mmHg 83%
    09:00 +31°C° 0 mm 2 mps 753 mmHg 77%
    10:00 +32°C° 0 mm 2 mps 753 mmHg 71%
    11:00 +35°C° 0 mm 2 mps 752 mmHg 63%
    12:00 +37°C° 0 mm 2 mps 752 mmHg 56%
    13:00 +38°C° 0 mm 2 mps 751 mmHg 48%
    14:00 +37°C° 0 mm 3 mps 750 mmHg 53%
    15:00 +37°C° 0 mm 5 mps 750 mmHg 57%
    16:00 +36°C° 0 mm 6 mps 749 mmHg 62%
    17:00 +34°C° 0 mm 6 mps 749 mmHg 67%
    18:00 +33°C° 0 mm 5 mps 750 mmHg 73%
    19:00 +30°C° 0 mm 5 mps 750 mmHg 78%
    20:00 +30°C° 0 mm 5 mps 751 mmHg 79%
    21:00 +30°C° 0 mm 4 mps 751 mmHg 80%
    22:00 +30°C° 0 mm 4 mps 752 mmHg 81%
    23:00 +30°C° 0 mm 4 mps 752 mmHg 82%

    Day after tomorrow, 22 March, Friday

    Time Temperature Precipitation Wind Pressure Humidity
    00:00 +30°C° 0 mm 3 mps 751 mmHg 83%
    01:00 +29°C° 0 mm 3 mps 751 mmHg 84%
    02:00 +29°C° 0 mm 3 mps 751 mmHg 85%
    03:00 +29°C° 0 mm 4 mps 750 mmHg 86%
    04:00 +29°C° 0 mm 4 mps 750 mmHg 87%
    05:00 +29°C° 0 mm 4 mps 751 mmHg 87%
    06:00 +29°C° 0 mm 3 mps 751 mmHg 87%
    07:00 +29°C° 0 mm 3 mps 751 mmHg 86%
    08:00 +30°C° 0 mm 2 mps 752 mmHg 78%
    09:00 +32°C° 0 mm 1 mps 752 mmHg 69%
    10:00 +34°C° 0 mm 1 mps 753 mmHg 60%
    11:00 +36°C° 0 mm 2 mps 752 mmHg 57%
    12:00 +37°C° 0 mm 3 mps 751 mmHg 54%
    13:00 +38°C° 0 mm 4 mps 751 mmHg 51%
    14:00 +37°C° 0 mm 5 mps 750 mmHg 57%
    15:00 +36°C° 0 mm 5 mps 750 mmHg 62%
    16:00 +35°C° 0 mm 6 mps 749 mmHg 67%
    17:00 +34°C° 0 mm 6 mps 750 mmHg 71%
    18:00 +33°C° 0 mm 5 mps 750 mmHg 74%
    19:00 +32°C° 0 mm 5 mps 751 mmHg 78%
    20:00 +30°C° 0 mm 5 mps 752 mmHg 79%
    21:00 +30°C° 0 mm 4 mps 752 mmHg 81%
    22:00 +30°C° 0 mm 4 mps 753 mmHg 83%
    23:00 +30°C° 0 mm 4 mps 753 mmHg 83%

    23 March, Saturday

    Time Temperature Precipitation Wind Pressure Humidity
    00:00 +30°C° 0 mm 4 mps 753 mmHg 84%
    01:00 +30°C° 0 mm 4 mps 752 mmHg 85%
    02:00 +29°C° 0 mm 4 mps 752 mmHg 85%
    03:00 +29°C° 0 mm 4 mps 752 mmHg 85%
    04:00 +29°C° 0 mm 4 mps 751 mmHg 86%
    05:00 +29°C° 0 mm 4 mps 752 mmHg 86%
    06:00 +29°C° 0 mm 3 mps 752 mmHg 86%
    07:00 +29°C° 0 mm 3 mps 752 mmHg 85%
    08:00 +31°C° 0 mm 2 mps 753 mmHg 78%
    09:00 +32°C° 0 mm 2 mps 753 mmHg 71%
    10:00 +34°C° 0 mm 2 mps 753 mmHg 63%
    11:00 +35°C° 0 mm 3 mps 753 mmHg 62%
    12:00 +36°C° 0 mm 4 mps 752 mmHg 60%
    13:00 +36°C° 0 mm 5 mps 751 mmHg 58%
    14:00 +35°C° 0.3 mm 4 mps 751 mmHg 63%
    15:00 +34°C° 0.3 mm 4 mps 751 mmHg 69%
    16:00 +33°C° 0.3 mm 3 mps 750 mmHg 75%
    17:00 +31°C° 0.1 mm 3 mps 751 mmHg 77%
    18:00 +30°C° 0.1 mm 4 mps 751 mmHg 79%
    19:00 +30°C° 0.1 mm 4 mps 752 mmHg 81%
    20:00 +30°C° 0 mm 4 mps 752 mmHg 81%
    21:00 +30°C° 0 mm 4 mps 752 mmHg 82%
    22:00 +30°C° 0 mm 4 mps 753 mmHg 83%
    23:00 +29°C° 0.3 mm 4 mps 753 mmHg 84%

    24 March, Sunday

    Time Temperature Precipitation Wind Pressure Humidity
    00:00 +29°C° 0.3 mm 4 mps 752 mmHg 85%
    01:00 +29°C° 0.3 mm 4 mps 752 mmHg 86%
    02:00 +29°C° 2.3 mm 4 mps 752 mmHg 86%
    03:00 +28°C° 2.3 mm 3 mps 752 mmHg 86%
    04:00 +28°C° 2.3 mm 3 mps 752 mmHg 87%
    05:00 +28°C° 0 mm 3 mps 752 mmHg 87%
    06:00 +28°C° 0 mm 2 mps 753 mmHg 88%
    07:00 +28°C° 0 mm 2 mps 753 mmHg 88%
    08:00 +28°C° 0 mm 1 mps 753 mmHg 87%
    09:00 +29°C° 0 mm 1 mps 753 mmHg 85%
    10:00 +29°C° 0 mm 1 mps 754 mmHg 84%
    11:00 +29°C° 0.1 mm 1 mps 753 mmHg 84%
    12:00 +29°C° 0.1 mm 1 mps 752 mmHg 85%
    13:00 +29°C° 0.1 mm 2 mps 751 mmHg 85%
    14:00 +29°C° 0 mm 1 mps 751 mmHg 84%
    15:00 +29°C° 0 mm 1 mps 751 mmHg 83%
    16:00 +29°C° 0 mm 1 mps 750 mmHg 82%
    17:00 +29°C° 0 mm 1 mps 751 mmHg 84%
    18:00 +28°C° 0 mm 1 mps 751 mmHg 85%
    19:00 +28°C° 0 mm 2 mps 752 mmHg 87%
    20:00 +28°C° 0 mm 1 mps 752 mmHg 88%
    21:00 +27°C° 0 mm 1 mps 753 mmHg 89%
    22:00 +27°C° 0 mm 1 mps 753 mmHg 90%
    23:00 +27°C° 0 mm 1 mps 753 mmHg 90%

    25 March, Monday

    Time Temperature Precipitation Wind Pressure Humidity
    00:00 +27°C° 0 mm 1 mps 752 mmHg 90%
    01:00 +27°C° 0 mm 1 mps 752 mmHg 91%
    02:00 +27°C° 0 mm 2 mps 751 mmHg 91%
    03:00 +27°C° 0 mm 2 mps 751 mmHg 91%
    04:00 +27°C° 0 mm 3 mps 750 mmHg 91%
    05:00 +27°C° 0 mm 3 mps 751 mmHg 91%
    06:00 +27°C° 0 mm 3 mps 752 mmHg 91%
    07:00 +27°C° 0 mm 3 mps 752 mmHg 90%
    08:00 +29°C° 0 mm 3 mps 752 mmHg 84%
    09:00 +30°C° 0 mm 2 mps 753 mmHg 78%
    10:00 +31°C° 0 mm 1 mps 753 mmHg 72%
    11:00 +32°C° 0 mm 2 mps 752 mmHg 67%
    12:00 +35°C° 0 mm 2 mps 751 mmHg 62%
    13:00 +36°C° 0 mm 2 mps 751 mmHg 57%
    14:00 +35°C° 0 mm 3 mps 750 mmHg 60%
    15:00 +35°C° 0 mm 4 mps 750 mmHg 63%
    16:00 +34°C° 0 mm 5 mps 749 mmHg 65%
    17:00 +33°C° 0 mm 5 mps 750 mmHg 70%
    18:00 +32°C° 0 mm 4 mps 750 mmHg 75%
    19:00 +29°C° 0 mm 4 mps 751 mmHg 80%
    20:00 +29°C° 0 mm 4 mps 751 mmHg 81%
    21:00 +29°C° 0 mm 4 mps 752 mmHg 82%
    22:00 +29°C° 0 mm 4 mps 752 mmHg 83%
    23:00 +29°C° 0 mm 3 mps 752 mmHg 84%
    Show more